RH
69 71 73 69 63 59 57 55 54 64 63 64 65 68 69 70 69 69 69 68 67 66 65 66 67 67 66
70 76 78 70 66 63 52 47 48 54 62 62 59 66 66 67 69 70 69 68 68 70 71 70 68 66 65
73 67 72 63 63 59 59 53 46 55 62 71 64 65 66 67 67 65 66 68 70 68 69 67 67 66 64
63 62 60 59 68 67 61 59 54 44 56 71 72 73 70 66 65 64 64 66 66 65 66 65 65 64 62
62 62 61 57 58 56 64 58 52 56 51 51 61 58 52 52 55 64 65 67 66 69 71 70 70 69 67
55 50 43 41 45 52 55 53 44 58 53 46 49 50 48 47 66 67 69 69 71 68 68 68 66 65 65
51 43 43 44 46 50 52 53 46 46 48 41 47 47 45 40 75 74 70 69 68 66 68 68 67 66 66
67 56 46 46 50 48 51 50 50 50 54 58 45 46 43 42 74 82 70 68 69 64 65 66 67 68 68
76 74 70 68 62 55 66 65 58 49 60 57 56 55 53 48 55 78 71 69 69 67 66 66 69 69 65
63 72 70 64 71 65 58 82 66 67 64 74 74 70 83 68 62 66 66 74 72 70 66 66 69 63 60
59 55 58 60 64 69 61 74 94 84 65 76 97 87 90 82 72 72 70 68 61 56 60 67 68 68 68
69 66 68 72 75 74 73 67 66 81 63 83 100 95 99 89 75 75 77 71 69 75 74 70 70 70 69
80 80 79 82 92 91 88 84 98 82 77 100 100 99 95 91 85 78 82 79 83 86 82 76 70 64 75
88 84 86 98 94 94 99 94 95 91 99 100 100 97 90 87 85 83 78 89 83 81 80 75 66 60 63
100 98 96 98 96 98 99 100 94 90 92 91 91 93 90 92 90 84 78 81 86 86 84 79 68 62 63
100 100 100 100 100 100 100 99 95 93 91 90 91 90 88 82 86 86 86 89 81 83 83 86 84 69 62
100 100 100 100 100 100 100 98 96 97 94 93 95 94 94 90 86 84 94 90 82 82 77 78 86 79 69
Wind_Speed
6 7 9 7 4 4 3 3 0 6 8 7 7 7 8 9 10 10 10 10 10 10 10 11 11 10 9
8 6 6 6 6 6 3 3 3 2 5 5 4 4 5 6 8 9 8 8 8 10 11 10 9 9 8
8 6 6 5 6 5 5 4 3 2 3 3 2 3 4 5 6 6 5 6 8 9 8 8 7 7 7
8 7 6 5 4 5 5 3 4 4 2 2 1 3 2 1 2 3 2 4 5 5 6 6 6 6 5
7 6 6 6 6 1 3 3 4 3 4 4 4 4 3 3 3 4 4 4 4 5 5 5 5 5 5
7 8 9 7 5 5 4 4 3 3 3 4 4 4 4 3 2 5 6 4 4 3 4 4 4 5 6
11 10 9 7 5 6 6 5 5 2 3 4 4 5 4 3 5 7 7 5 2 3 4 5 5 5 6
12 11 9 6 6 5 5 5 3 4 4 4 2 4 3 4 7 6 9 7 5 2 5 5 6 6 8
15 10 10 10 8 4 6 5 4 4 5 2 2 3 3 4 4 7 8 7 7 6 7 7 8 9 9
10 13 13 11 13 10 6 6 4 2 3 4 2 2 2 2 3 5 6 8 9 8 8 8 8 5 6
9 8 8 8 7 8 8 6 4 4 3 3 2 2 2 1 2 4 5 5 5 5 7 9 11 10 7
7 8 8 7 7 7 7 6 5 4 3 4 2 3 2 1 2 2 3 4 4 5 4 6 9 13 14
8 7 6 5 5 4 4 3 1 3 3 3 2 2 3 3 2 1 2 2 3 4 4 4 6 7 7
8 6 4 5 6 6 6 5 4 5 5 4 4 4 4 5 5 5 4 3 1 2 5 6 8 8 7
6 6 6 6 6 6 5 6 7 5 6 5 5 5 5 6 5 6 6 5 4 5 4 6 8 8 7
5 6 6 7 7 6 6 7 7 7 6 6 5 4 3 8 15 7 5 6 5 4 5 7 8 7 6
5 6 6 5 7 7 7 7 7 6 6 6 7 6 7 6 2 15 6 4 4 5 6 6 8 10 8
Wind_Direction
291 298 291 286 270 272 282 291 324 7 355 6 28 39 43 63 70 64 51 50 63 75 75 77 77 74 72
284 279 287 289 294 291 272 274 284 24 335 346 359 61 67 66 53 59 66 76 77 65 65 71 64 55 52
276 278 269 283 286 268 269 258 252 301 301 343 55 67 74 71 55 48 52 86 88 84 72 55 53 59 52
262 273 280 284 273 280 265 228 248 212 230 308 348 84 74 18 10 5 46 100 89 81 71 65 46 17 12
256 259 261 260 255 294 267 282 255 245 241 215 218 219 213 230 274 254 203 127 99 68 38 21 3 352 345
254 253 260 255 260 255 268 274 284 166 246 240 227 239 227 245 254 231 173 150 101 40 3 344 339 332 326
254 256 273 249 251 250 246 250 258 120 262 266 197 236 208 219 231 228 170 176 149 0 343 330 317 308 306
241 255 255 261 247 273 290 280 257 217 216 261 169 243 202 218 204 250 189 198 191 275 319 308 303 305 300
244 249 251 251 248 243 234 226 247 228 187 243 178 258 240 234 203 220 199 208 228 276 307 305 300 301 292
240 239 239 240 229 223 239 227 228 274 166 218 192 217 231 184 227 207 212 226 246 258 281 285 283 286 292
253 240 224 221 213 211 222 223 211 238 150 198 202 193 243 277 200 214 232 242 246 240 261 261 269 271 282
243 236 224 215 210 203 210 215 227 231 181 180 283 229 202 240 248 182 220 231 237 265 255 275 273 280 275
240 239 219 209 173 179 186 173 165 227 219 141 215 226 249 257 282 247 319 214 220 268 272 269 287 287 288
242 246 196 176 195 187 184 188 214 216 202 199 204 203 242 245 257 266 249 269 183 252 274 286 280 272 271
227 212 198 199 203 181 188 182 210 198 199 187 204 222 246 262 254 243 254 257 261 272 276 280 283 278 267
222 211 208 201 199 187 194 199 211 206 199 173 170 188 229 236 223 243 246 257 266 263 266 280 283 278 276
254 241 220 213 201 197 197 201 209 206 196 181 185 201 219 241 137 219 243 240 258 271 270 263 270 280 285